Location: Central Falls
(41.8900°N, 71.3929°W)
Time: 02:35:44
(UTC+00:00)

Vanguard 2 Rocket - Pass Details

Date: 05 December 2023
Orbit: 555 x 3309 km, 32.9° (Epoch: 01 March)

Event Time Altitude Azimuth Distance (km) Brightness Sun altitude
Rises 19:33:59 0° 241° (WSW) 6,260 12.6 13.7°
Reaches altitude 10° 19:37:45 10° 238° (WSW) 5,527 12.8 13.2°
Maximum altitude 19:55:23 59° 165° (SSE) 3,627 10.3 10.9°
Drops below altitude 10° 20:14:15 10° 92° (E) 5,875 10.6 8.3°
Sets 20:18:24 0° 89° (E) 6,659 10.8 7.7°
